Regional Weather Roundup
Issued by NWS

Home | Current Version | Previous Version | Graphics & Text | Print | Product List | Glossary Off
Versions: 1 2 3 4 5 6 7 8 9 10 11 12 13 14 15 16 17 18 19 20 21 22 23 24 25 26 27 28 29 30 31 32 33 34 35 36 37 38 39 40 41 42 43 44 45 46 47 48 49 50

565
ASUS43 KMKX 222011
RWRWI

WISCONSIN REGIONAL WEATHER ROUNDUP
NATIONAL WEATHER SERVICE MILWAUKEE/SULLIVAN WI
300 PM CDT SAT JUL 22 2017

NOTE: "FAIR" INDICATES FEW OR NO CLOUDS BELOW 12,000 FEET WITH NO
SIGNIFICANT WEATHER AND/OR OBSTRUCTIONS TO VISIBILITY.

WIZ001-002-006>008-014>016-023>028-222100-
NORTHWEST WISCONSIN

CITY           SKY/WX    TMP DP  RH WIND       PRES   REMARKS
SUPERIOR ARPT  NOT AVBL
ASHLAND        SUNNY     77  68  73 N7        29.82S
HAYWARD        PTSUNNY   82  67  60 VRB6      29.82S HX  84
SIREN          MOSUNNY   84  64  51 W8G18     29.83R HX  85
CUMBERLAND     SUNNY     82  63  51 W8        29.83S HX  83
RICE LAKE      SUNNY     85  64  50 W5        29.83S HX  86
CHETEK         SUNNY     85  65  50 NW6       29.82S HX  87
LADYSMITH      MOSUNNY   85  67  55 W5        29.83S HX  87
EAU CLAIRE     SUNNY     87  65  47 W8        29.80F HX  89
MENOMONIE      PTSUNNY   85  68  56 W6        29.81F HX  88
NEW RICHMOND   MOSUNNY   85  65  52 W8        29.82S HX  86
OSCEOLA        PTSUNNY   86  68  54 NW7       29.84S HX  89
$$

WIZ003>005-009-010-017-018-222100-
NORTH CENTRAL WISCONSIN

CITY           SKY/WX    TMP DP  RH WIND       PRES   REMARKS
MANITOWISH WTR PTSUNNY   81  67  64 W8        29.82S HX  83
ARBOR VITAE    MOSUNNY   81  66  60 CALM      29.81S HX  83
WOODRUFF       MOSUNNY   81  66  60 CALM      29.81S HX  83
RHINELANDER    PTSUNNY   83  66  56 NW8       29.83S HX  85
EAGLE RIVER    PTSUNNY   79  62  55 NW6       29.82F HX  81
LAND O LAKES   CLOUDY    80  62  53 N7        29.83F HX  82
PHILLIPS       MOSUNNY   82  68  62 SW12      29.81S HX  85
TOMAHAWK         N/A     83  64  52 W5        29.82S HX  85
MEDFORD        MOSUNNY   82  67  61 SW7       29.83S HX  84
MERRILL        MOSUNNY   85  67  54 W10G16    29.81F HX  88
$$

WIZ029-030-035-036-043>047-222100-
CENTRAL WISCONSIN

CITY           SKY/WX    TMP DP  RH WIND       PRES   REMARKS
WAUSAU         PTSUNNY   84  65  52 W7        29.80S HX  86
MOSINEE        PTSUNNY   82  66  57 SW5       29.83F HX  85
MARSHFIELD     SUNNY     83  66  56 VRB5      29.82F HX  85
STEVENS POINT  MOSUNNY   82  64  54 W7        29.82S HX  84
WAUPACA        SUNNY     85  67  54 CALM      29.81S HX  87
WAUTOMA        MOSUNNY   82  69  64 NW3       29.82S HX  85
WISC RAPIDS    MOSUNNY   84  70  62 VRB5      29.83F HX  88
CAMP DOUGLAS   MOSUNNY   82  70  65 CALM      29.83S HX  86
$$

WIZ011>013-019>022-031-037>040-048>050-222100-
NORTHEAST WISCONSIN

CITY           SKY/WX    TMP DP  RH WIND       PRES   REMARKS
ANTIGO         CLOUDY    80  66  62 NW5       29.83S HX  81
SHAWANO        PTSUNNY   84  68  57 SE6       29.80S HX  87
OCONTO         SUNNY     78  66  66 SE6       29.80F HX  80
STURGEON BAY     N/A     77  65  66 CALM      29.82F
GREEN BAY      SUNNY     82  70  66 CALM      29.80F HX  86
MANITOWOC      CLOUDY    78  65  63 VRB5      29.82R HX  80
APPLETON       PTSUNNY   81  63  54 VRB5      29.80F HX  82
CLINTONVILLE   MOSUNNY   81  64  57 CALM      29.81S HX  82
OSHKOSH        PTSUNNY   79  69  71 SE6       29.81S HX  81
$$

WIZ032>034-041-042-053>061-222100-
SOUTHWEST WISCONSIN

CITY           SKY/WX    TMP DP  RH WIND       PRES   REMARKS
LA CROSSE      SUNNY     83  71  67 CALM      29.81F HX  87
SPARTA         SUNNY     80  70  70 CALM      29.83F HX  83
VIROQUA        CLOUDY    78  73  83 CALM      29.86R HX  81
BOSCOBEL       MOSUNNY   83  72  69 CALM      29.82F HX  88
PRAIRIE DU CHI CLOUDY    79  71  75 NW3       29.82S HX  82
PLATTEVILLE    CLOUDY    80  76  86 CALM      29.84F HX  86
$$

WIZ056-057-062-063-064-067-068-222100-
SOUTH CENTRAL WISCONSIN

CITY           SKY/WX    TMP DP  RH WIND       PRES   REMARKS
REEDSBURG      PTSUNNY   78  71  81 S5        29.84S HX  80
BARABOO/DELLS  PTSUNNY   82  68  62 W5        29.84S HX  85
LONE ROCK      PTSUNNY   80  70  71 CALM      29.82F HX  83
MINERAL POINT  CLOUDY    81  73  78 CALM      29.85F HX  85
MADISON        PTSUNNY   79  70  74 VRB3      29.83S HX  82
MIDDLETON      CLOUDY    83  74  76 CALM      29.84S HX  89
WATERTOWN      CLOUDY    77  72  84 SW5       29.83S
MONROE         PTSUNNY   81  70  69 CALM      29.84F HX  84
JANESVILLE     CLOUDY    81  72  74 N6        29.83F HX  84
$$

WIZ051-052-058>065-066-070>072-222100-
SOUTHEAST WISCONSIN

CITY           SKY/WX    TMP DP  RH WIND       PRES   REMARKS
MILWAUKEE      PTSUNNY   79  72  79 E5        29.82F HX  82
WAUKESHA       PTSUNNY   77  70  78 SW6       29.83F
MILWAUKEE/TIMM PTSUNNY   81  66  61 SE7       29.82F HX  83
RACINE         CLOUDY    78  71  79 CALM      29.83F HX  80
KENOSHA        CLOUDY    82  71  69 W7        29.82F HX  86
FOND DU LAC    PTSUNNY   81  68  64 CALM      29.82S HX  84
SHEBOYGAN      PTSUNNY   78  72  81 NE9       29.81S HX  80
WEST BEND      CLOUDY    79  68  69 CALM      29.82S HX  81
JUNEAU         CLOUDY    78  71  77 SW5       29.84S HX  80
$$

LSZ147-162-222100-
LAKE SUPERIOR

STATION/POSITION TIME  TEMP    WIND        PRES    WAVE
                       AIR SEA DIR/SP/G            HT/PER
                 (UTC) (F)     (DEG/KT/KT) (MB)    (FT/S)
W MID LAKE BUOY  1950   48 47   30/ 10/ 12 1010.2S   2/ 4
DEVILS ISLAND    2000   55      20/  5/  6 1010.9R
SAXON HARBOR     1940   67      20/  4/  5 1009.8S
$$

LMZ867-665-643>646-222100-
LAKE MICHIGAN

STATION/POSITION TIME  TEMP    WIND        PRES    WAVE
                       AIR SEA DIR/SP/G            HT/PER
                 (UTC) (F)     (DEG/KT/KT) (MB)    (FT/S)
CHAMBERS ISLAND  1940   78     330/  3/  6 1009.1F
S GREEN BAY BUOY 2000   75 76  100/  4/  4 1009.3
N MID LAKE BUOY  1950   69 70   40/  2/  4 1010.1F   0
NORTHPORT PIER   1940   74     110/  3/  5 1009.5S
KEWAUNEE LAKESHO 1948   74      40/  3/  5 1009.3S
SHEBOYGAN LAKESH 2000   69      60/  3/  3 1009.2R
PORT WASHINGTON  1930   72     110/  3/  4 1010.5S
ATWATER BUOY     1939   69 68  130/  6/  8 1010.2R
MILWAUKEE LAKESH 1950   70      70/  5/  5   N/A
S MID LAKE BUOY  1950   70 70  320/  8/ 10 1009.5F   1/ 5
KENOSHA   LAKESH 2000   70      40/  3/  6 1009.5
$$

TC  - TEMPERATURE IN CELSIUS
VSB - VISIBILITY IN STATUTE MILES
WCI - WIND CHILL INDEX
HX  - HEAT INDEX





USA.gov is the U.S. government's official web portal to all federal, state and local government web resources and services.